Date,TemperatureHighF,TemperatureAvgF,TemperatureLowF,DewpointHighF,DewpointAvgF,DewpointLowF,HumidityHigh,HumidityAvg,HumidityLow,PressureMaxIn,PressureMinIn,WindSpeedMaxMPH,WindSpeedAvgMPH,GustSpeedMaxMPH,PrecipitationSumIn
2013-8-1,75.0,69.1,66.0,-99.9,-99.9,-99.9,0,0,100,0.00,40.00,8,4,11,0.00
2013-8-2,74.0,67.9,62.0,-99.9,-99.9,-99.9,0,0,100,0.00,40.00,18,6,27,0.00
2013-8-3,71.0,68.6,65.0,-99.9,-99.9,-99.9,0,0,100,0.00,40.00,12,5,16,0.00
2013-8-4,68.0,66.1,61.0,-99.9,-99.9,-99.9,0,0,100,0.00,40.00,12,7,16,0.00
2013-8-5,72.0,64.5,56.0,-99.9,-99.9,-99.9,0,0,100,0.00,40.00,11,3,16,0.00
2013-8-6,80.0,69.4,64.0,-99.9,-99.9,-99.9,0,0,100,0.00,40.00,12,4,16,0.00
2013-8-7,82.0,73.0,68.0,-99.9,-99.9,-99.9,0,0,100,0.00,40.00,10,4,34,0.00
2013-8-8,72.0,67.5,62.0,-99.9,-99.9,-99.9,0,0,100,0.00,40.00,14,8,20,0.00
2013-8-9,74.0,68.8,61.0,-99.9,-99.9,-99.9,0,0,100,0.00,40.00,7,3,14,0.00
2013-8-10,77.0,71.1,65.0,-99.9,-99.9,-99.9,0,0,100,0.00,40.00,12,5,15,0.00
2013-8-11,77.0,68.6,62.0,-99.9,-99.9,-99.9,0,0,100,0.00,40.00,5,1,9,0.00
2013-8-12,75.0,71.0,67.0,-99.9,-99.9,-99.9,0,0,100,0.00,40.00,12,6,18,0.00
2013-8-13,69.0,62.9,59.0,-99.9,-99.9,-99.9,0,0,100,0.00,40.00,19,13,27,0.00
2013-8-14,64.0,58.6,55.0,-99.9,-99.9,-99.9,0,0,100,0.00,40.00,11,4,19,0.00
2013-8-15,75.0,56.5,53.0,-99.9,-99.9,-99.9,0,0,100,0.00,40.00,13,4,16,0.00
2013-8-16,72.0,62.1,58.0,-99.9,-99.9,-99.9,0,0,100,0.00,40.00,7,3,9,0.00
2013-8-17,79.0,67.5,58.0,-99.9,-99.9,-99.9,0,0,100,0.00,40.00,14,4,19,0.00
2013-8-18,73.0,65.4,57.0,-99.9,-99.9,-99.9,0,0,100,0.00,40.00,7,3,11,0.00
2013-8-19,77.0,65.7,61.0,-99.9,-99.9,-99.9,0,0,100,0.00,40.00,5,2,7,0.00
2013-8-20,85.0,74.1,68.0,-99.9,-99.9,-99.9,0,0,100,0.00,40.00,9,4,13,0.00
2013-8-21,85.0,75.8,69.0,-99.9,-99.9,-99.9,0,0,100,0.00,40.00,15,6,20,0.00
2013-8-22,81.0,70.6,67.0,-99.9,-99.9,-99.9,0,0,100,0.00,40.00,27,8,29,0.00
2013-8-23,76.0,70.2,64.0,-99.9,-99.9,-99.9,0,0,100,0.00,40.00,13,6,16,0.00
2013-8-24,79.0,69.0,59.0,-99.9,-99.9,-99.9,0,0,100,0.00,40.00,6,2,12,0.00
2013-8-25,82.0,71.2,63.0,-99.9,-99.9,-99.9,0,0,100,0.00,40.00,14,6,19,0.00
2013-8-26,82.0,75.9,72.0,-99.9,-99.9,-99.9,0,0,100,0.00,40.00,17,12,23,0.00
2013-8-27,84.0,76.5,75.0,-99.9,-99.9,-99.9,0,0,100,0.00,40.00,14,12,20,0.00
2013-8-28,75.0,72.6,70.0,-99.9,-99.9,-99.9,0,0,100,0.00,40.00,12,9,16,0.00
2013-8-29,77.0,72.2,68.0,-99.9,-99.9,-99.9,0,0,100,0.00,40.00,6,2,9,0.00
2013-8-30,87.0,75.8,70.0,-99.9,-99.9,-99.9,0,0,100,0.00,40.00,14,6,32,0.00
2013-8-31,75.0,72.3,69.0,-99.9,-99.9,-99.9,0,0,100,0.00,40.00,15,7,22,0.00